Weather History for San Antonio, TX

Change the Weather History Date:

Saturday, April 12, 2014

  Actual Average Record
Temperature  
Mean Temperature 77 °F 68 °F  
Max Temperature 88 °F 80 °F 94 °F (1948)
Min Temperature 65 °F 57 °F 36 °F (1951)
Degree Days  
Heating Degree Days 0 2  
Month to date heating degree days 15 26  
Since 1 July heating degree days 1537 1481  
Cooling Degree Days 12 5  
Month to date cooling degree days 77 51  
Year to date cooling degree days 203 142  
Growing Degree Days 26 (Base 50)    
Moisture  
Dew Point 63 °F    
Average Humidity 63    
Maximum Humidity 87    
Minimum Humidity 39    
Precipitation  
Precipitation 0.00 in 0.07 in 1.76 in (1923)
Month to date precipitation 0.43 0.72  
Year to date precipitation 2.14 6.58  
Snow  
Snow 0.00 in - - ()
Month to date snowfall 0.0  
Since 1 July snowfall 0.4  
Snow Depth 0.00 in    
Sea Level Pressure  
Sea Level Pressure 29.88 in    
Wind  
Wind Speed 15 mph (SSE)    
Max Wind Speed 28 mph    
Max Gust Speed 37 mph    
Visibility 10 miles    
Events      
T = Trace of Precipitation, MM = Missing Value Source: NWS Daily Summary

Daily Weather History Graph

Daily Weather History Graph

Search for Another Location

Airport:

Trip Planner

Search our weather history database for the weather conditions in past years. The results will help you decide how hot, cold, wet, or windy it might be!

Date:

Astronomy

Apr. 12, 2014 Rise Set
Actual Time 7:10 AM CDT 7:58 PM CDT
Civil Twilight 6:46 AM CDT 8:23 PM CDT
Nautical Twilight 6:17 AM CDT 8:51 PM CDT
Astronomical Twilight 5:48 AM CDT 9:21 PM CDT
Moon 5:48 PM CDT (4/12) 5:26 AM CDT (4/12)
Length of Visible Light 13h 36m
Length of Day
12h 48m
Waxing Gibbous, 93% of the Moon is Illuminated
Apr 12
Waxing Gibbous
Apr 15
Full
Apr 22
Last Quarter
Apr 29
New
May 6
First Quarter

Hourly Weather History & Observations

Time (CDT) Temp. Heat Index Dew Point Humidity Pressure Visibility Wind Dir Wind Speed Gust Speed Precip Events Conditions
12:51 AM 69.1 °F - 62.1 °F 78% 29.95 in 10.0 mi SSE 12.7 mph - N/A   Overcast
1:29 AM 68.0 °F - 62.1 °F 81% 29.99 in 10.0 mi SSE 11.5 mph - N/A   Overcast
1:51 AM 68.0 °F - 62.1 °F 81% 29.94 in 10.0 mi SSE 13.8 mph - N/A   Overcast
2:51 AM 68.0 °F - 63.0 °F 84% 29.92 in 10.0 mi South 12.7 mph - N/A   Overcast
3:51 AM 66.9 °F - 62.1 °F 84% 29.91 in 10.0 mi SSE 9.2 mph - N/A   Mostly Cloudy
4:33 AM 66.0 °F - 63.0 °F 90% 29.96 in 10.0 mi SE 6.9 mph - N/A   Mostly Cloudy
4:51 AM 66.0 °F - 63.0 °F 90% 29.91 in 10.0 mi SSE 8.1 mph - N/A   Overcast
5:51 AM 66.0 °F - 63.0 °F 90% 29.90 in 10.0 mi SE 6.9 mph - N/A   Overcast
6:51 AM 66.9 °F - 63.0 °F 87% 29.90 in 10.0 mi SSE 8.1 mph - N/A   Overcast
7:51 AM 68.0 °F - 63.0 °F 84% 29.92 in 10.0 mi SSE 10.4 mph - N/A   Overcast
8:51 AM 69.1 °F - 63.0 °F 81% 29.93 in 10.0 mi SSE 12.7 mph - N/A   Overcast
9:51 AM 71.1 °F - 63.0 °F 75% 29.94 in 10.0 mi SSE 15.0 mph - N/A   Overcast
10:51 AM 75.0 °F - 63.0 °F 66% 29.93 in 10.0 mi South 18.4 mph 24.2 mph N/A   Overcast
11:51 AM 80.1 °F 81.5 °F 63.0 °F 56% 29.93 in 10.0 mi South 17.3 mph 21.9 mph N/A   Mostly Cloudy
12:51 PM 82.0 °F 83.1 °F 63.0 °F 52% 29.90 in 10.0 mi South 15.0 mph 27.6 mph N/A   Mostly Cloudy
1:51 PM 82.9 °F 84.0 °F 63.0 °F 51% 29.86 in 10.0 mi South 13.8 mph - N/A   Mostly Cloudy
2:51 PM 84.9 °F 85.0 °F 61.0 °F 44% 29.83 in 10.0 mi SSE 17.3 mph - N/A   Mostly Cloudy
3:51 PM 88.0 °F 87.1 °F 59.0 °F 37% 29.81 in 10.0 mi SE 16.1 mph 23.0 mph N/A   Mostly Cloudy
4:51 PM 88.0 °F 87.1 °F 59.0 °F 37% 29.78 in 10.0 mi SSE 18.4 mph 26.5 mph N/A   Mostly Cloudy
5:51 PM 86.0 °F 85.7 °F 60.1 °F 41% 29.77 in 10.0 mi SSE 19.6 mph 25.3 mph N/A   Mostly Cloudy
6:51 PM 82.9 °F 84.4 °F 64.0 °F 53% 29.78 in 10.0 mi SSE 23.0 mph - N/A   Mostly Cloudy
7:51 PM 77.0 °F - 64.9 °F 66% 29.79 in 10.0 mi SE 19.6 mph - N/A   Mostly Cloudy
8:51 PM 75.9 °F - 64.0 °F 67% 29.81 in 10.0 mi SSE 17.3 mph 28.8 mph N/A   Overcast
9:21 PM 73.9 °F - 64.0 °F 71% 29.87 in 10.0 mi SSE 18.4 mph 28.8 mph N/A   Overcast
9:51 PM 73.9 °F - 64.0 °F 71% 29.83 in 10.0 mi SE 19.6 mph - N/A   Overcast
10:51 PM 72.0 °F - 64.0 °F 76% 29.83 in 10.0 mi SSE 16.1 mph - N/A   Overcast
11:51 PM 71.1 °F - 63.0 °F 75% 29.83 in 10.0 mi SSE 15.0 mph - N/A   Overcast